Regional Weather Roundup
Issued by NWS

Home | Current Version | Previous Version | Text Only | Print | Product List | Glossary Off
Versions: 1 2 3 4 5 6 7 8 9 10 11 12 13 14 15 16 17 18 19 20 21 22 23 24 25 26 27

000
ASUS45 KCYS 242310
RWRWY

WYOMING REGIONAL WEATHER ROUNDUP
NATIONAL WEATHER SERVICE CHEYENNE WY
500 PM MDT SAT SEP 24 2016

NOTE:  "FAIR" INDICATES FEW OR NO CLOUDS BELOW 12,000 FEET
WITH NO SIGNIFICANT WEATHER AND/OR OBSTRUCTIONS TO VISIBILITY.

WYZ001-250000-
YELLOWSTONE NATIONAL PARK

CITY           SKY/WX    TMP DP  RH WIND       PRES   REMARKS
LK YELLOWSTONE   N/A     48  29  47 VRB7G17   30.28R
W YELLOWSTONE  NOT AVBL

$$
WYZ002>013-054>058-071-098>099-250000-
NORTHERN WYOMING

CITY           SKY/WX    TMP DP  RH WIND       PRES   REMARKS
JACKSON        PTSUNNY   52  32  46 W9        30.26R
CODY           CLOUDY    51  40  65 SW3       30.18R
GREYBULL       CLOUDY    50  46  86 S3        30.14R
WORLAND        CLOUDY    49  45  86 SW12      30.16R
SHERIDAN       LGT RAIN  49  45  86 NW9       30.08R
BUFFALO        CLOUDY    47  42  83 S5        30.10R
GILLETTE       LGT RAIN  44  43  96 W15       30.04R
HULETT         LGT RAIN  43  41  93 W16       29.99S
NEWCASTLE      MOCLDY    45  41  87 NW18G24   30.04S

$$
WYZ014>020-022>026-101>103-250000-
CENTRAL WYOMING

CITY           SKY/WX    TMP DP  RH WIND       PRES   REMARKS
BIG PINEY      FAIR      51  29  42 NW26G33   30.26R
PINEDALE       FAIR      48  32  53 NW22      30.26R
DUBOIS         MOCLDY    45  32  61 NW18G25   30.23R
LANDER         PTSUNNY   50  42  74 SE8       30.20R
RIVERTON       PTSUNNY   47  42  83 S6        30.22R
CASPER         CLOUDY    48  40  73 W17       30.16R
DOUGLAS        PTSUNNY   50  40  68 W25G32    30.12R

$$
WYZ021-027>030-104>119-250000-
SOUTHERN WYOMING

CITY           SKY/WX    TMP DP  RH WIND       PRES   REMARKS
EVANSTON       CLOUDY    47  32  56 NW9       30.33R
FORT BRIDGER   MOCLDY    49  36  61 W17G23    30.34R
ROCK SPRINGS   CLOUDY    45  39  79 W7        30.25R
DIXON          CLOUDY    46  39  78 W5        30.29R
RAWLINS        LGT RAIN  44  37  76 NW13      30.24R
SARATOGA       DRIZZLE   43  37  81 NW12      30.24R
LARAMIE        CLOUDY    45  35  68 NW22G33   30.17R
CHEYENNE       CLOUDY    56  33  42 NW17G23   30.11R
TORRINGTON     CLOUDY    60  40  47 NW23G32   30.04R
PINE BLUFFS    FAIR      63  32  31 NW23G30   30.07R

$$




USA.gov is the U.S. government's official web portal to all federal, state and local government web resources and services.